Location: Huesca
(42.1318°N, 0.4078°W)
Time: 12:33:50
(UTC+01:00)

O/OREOS (USA 219) - Pass Details

Date: 13 November 2024
Orbit: 590 x 609 km, 72.0° (Epoch: 06 December)

Event Time Altitude Azimuth Distance (km) Brightness Sun altitude
Exits shadow 05:42:26 18° 187° (S) 1,468 ? -23.7°
Drops below altitude 10° 05:43:39 10° 180° (S) 1,924 ? -23.4°
Sets 05:45:57 0° 174° (S) 2,825 ? -23.0°
